Date String (YYYY-MM-DD hh:mm:ss) UTC,Instrument flags,absolute air pressure of the measurement (hPa),sample flow rate (lpm),inlet stack bypass flow (lpm),air temperature of the measurement (°C),ambient temperature measured by the external sensor (°C),aerosol sample conditioner tube jacket temperature (°C),OPC LED temperature (°C),internal box temperature (°C),relative humidity of the measurement (%),span deviation,mass concentration of particles derived from Lorenz-Mie calculation of OPC scattering (μg/m³),mass concentration of particles derived from Lorenz-Mie calculation of OPC scattering (μg/m³),mass concentration of particles derived from Lorenz-Mie calculation of OPC scattering (μg/m³)
DateTimeUTC,F1_M11,P_M11,Q1_M11,Q2_M11,T1_M11,T2_M11,T3_M11,T4_M11,T5_M11,U1_M11,ZSPAN_M11,X0_M11,X2_M11,X1_M11
2024-03-01 04:00:00,SystemResetWarning,0823.3,5.00,000.00,024.4,023.5,000.0,033.0,026.3,05.0,0000.0,0005.77,0003.14,0001.94
2024-03-01 04:01:00,SystemResetWarning,0823.3,5.00,000.00,024.4,023.4,000.0,032.9,026.2,05.1,0000.0,0005.79,0003.13,0001.92
2024-03-01 04:02:00,SystemResetWarning,0823.3,5.00,000.00,024.4,023.4,000.0,032.9,026.2,05.1,0000.0,0005.81,0003.16,0001.91
2024-03-01 04:03:00,SystemResetWarning,0823.2,5.00,000.00,024.4,023.4,000.0,032.9,026.2,05.0,0000.0,0006.52,0003.17,0001.90
2024-03-01 04:04:00,SystemResetWarning,0823.1,4.99,000.00,024.4,023.4,000.0,032.9,026.2,05.2,0000.0,0006.82,0003.20,0001.88
2024-03-01 04:05:00,SystemResetWarning,0823.1,5.00,000.00,024.3,023.4,000.0,032.9,026.1,05.1,0000.0,0006.79,0003.20,0001.88
2024-03-01 04:06:00,SystemResetWarning,0823.1,5.01,000.00,024.3,023.4,000.0,032.9,026.1,05.1,0000.0,0006.88,0003.22,0001.91
2024-03-01 04:07:00,SystemResetWarning,0823.1,5.00,000.00,024.3,023.4,000.0,032.9,026.1,05.1,0000.0,0006.72,0003.22,0001.94
2024-03-01 04:08:00,SystemResetWarning,0823.1,5.00,000.00,024.3,023.4,000.0,032.9,026.1,05.2,0000.0,0006.77,0003.23,0001.94
2024-03-01 04:09:00,SystemResetWarning,0823.1,5.00,000.00,024.3,023.4,000.0,032.8,026.1,05.2,0000.0,0006.74,0003.23,0001.94
2024-03-01 04:10:00,SystemResetWarning,0823.1,5.00,000.00,024.3,023.4,000.0,032.8,026.1,05.4,0000.0,0006.80,0003.25,0001.94
2024-03-01 04:11:00,SystemResetWarning,0823.2,5.00,000.00,024.3,023.4,000.0,032.8,026.1,05.4,0000.0,0006.70,0003.22,0001.92
2024-03-01 04:12:00,SystemResetWarning,0823.2,5.00,000.00,024.3,023.3,000.0,032.8,026.1,05.4,0000.0,0006.72,0003.22,0001.90
2024-03-01 04:13:00,SystemResetWarning,0823.2,5.00,000.00,024.3,023.3,000.0,032.8,026.0,05.4,0000.0,0006.64,0003.21,0001.89
2024-03-01 04:14:00,SystemResetWarning,0823.2,5.00,000.00,024.3,023.3,000.0,032.8,026.0,05.3,0000.0,0006.07,0003.18,0001.89
2024-03-01 04:15:00,SystemResetWarning,0823.2,5.00,000.00,024.3,023.3,000.0,032.8,026.0,05.4,0000.0,0005.74,0003.17,0001.88
2024-03-01 04:16:00,SystemResetWarning,0823.3,5.00,000.00,024.3,023.3,000.0,032.8,026.0,05.4,0000.0,0005.53,0003.14,0001.87
2024-03-01 04:17:00,SystemResetWarning,0823.3,5.01,000.00,024.3,023.3,000.0,032.8,026.0,05.4,0000.0,0005.48,0003.10,0001.83
2024-03-01 04:18:00,SystemResetWarning,0823.3,5.01,000.00,024.2,023.3,000.0,032.7,026.0,05.3,0000.0,0005.58,0003.06,0001.80
2024-03-01 04:19:00,SystemResetWarning,0823.3,5.00,000.00,024.2,023.3,000.0,032.7,026.0,05.5,0000.0,0005.49,0003.03,0001.80
2024-03-01 04:20:00,SystemResetWarning,0823.3,4.99,000.00,024.3,023.3,000.0,032.7,026.0,05.5,0000.0,0005.97,0003.05,0001.79
2024-03-01 04:21:00,SystemResetWarning,0823.3,4.99,000.00,024.2,023.3,000.0,032.7,026.0,05.4,0000.0,0006.25,0002.99,0001.79
2024-03-01 04:22:00,SystemResetWarning,0823.2,5.00,000.00,024.2,023.3,000.0,032.7,026.1,05.6,0000.0,0006.66,0003.06,0001.79
2024-03-01 04:23:00,SystemResetWarning,0823.2,5.01,000.00,024.2,023.4,000.0,032.7,026.0,05.6,0000.0,0006.83,0003.09,0001.80
2024-03-01 04:24:00,SystemResetWarning,0823.3,5.00,000.00,024.2,023.4,000.0,032.7,026.0,05.7,0000.0,0007.14,0003.16,0001.80
2024-03-01 04:25:00,SystemResetWarning,0823.3,5.00,000.00,024.2,023.3,000.0,032.7,026.0,05.6,0000.0,0007.35,0003.21,0001.80
2024-03-01 04:26:00,SystemResetWarning,0823.3,5.00,000.00,024.2,023.3,000.0,032.7,026.0,05.6,0000.0,0007.39,0003.20,0001.80
2024-03-01 04:27:00,SystemResetWarning,0823.3,5.00,000.00,024.2,023.3,000.0,032.7,026.0,05.8,0000.0,0007.49,0003.22,0001.78
2024-03-01 04:28:00,SystemResetWarning,0823.3,5.00,000.00,024.2,023.3,000.0,032.7,026.0,05.8,0000.0,0007.59,0003.21,0001.77
2024-03-01 04:29:00,SystemResetWarning,0823.3,5.00,000.00,024.2,023.3,000.0,032.7,026.0,05.8,0000.0,0007.50,0003.20,0001.76
2024-03-01 04:30:00,SystemResetWarning,0823.3,5.00,000.00,024.2,023.2,000.0,032.7,025.9,05.8,0000.0,0007.54,0003.23,0001.75
2024-03-01 04:31:00,SystemResetWarning,0823.3,5.00,000.00,024.2,023.2,000.0,032.7,025.9,05.8,0000.0,0007.27,0003.20,0001.74
2024-03-01 04:32:00,SystemResetWarning,0823.2,5.00,000.00,024.2,023.2,000.0,032.6,025.9,05.9,0000.0,0007.04,0003.23,0001.73
2024-03-01 04:33:00,SystemResetWarning,0823.2,5.00,000.00,024.2,023.2,000.0,032.6,025.9,05.8,0000.0,0006.94,0003.25,0001.74
2024-03-01 04:34:00,SystemResetWarning,0823.1,5.00,000.00,024.2,023.2,000.0,032.6,026.0,05.8,0000.0,0006.79,0003.23,0001.75
2024-03-01 04:35:00,SystemResetWarning,0823.1,5.00,000.00,024.2,023.2,000.0,032.6,026.0,05.8,0000.0,0006.43,0003.18,0001.76
2024-03-01 04:36:00,SystemResetWarning,0823.0,5.00,000.00,024.2,023.2,000.0,032.6,026.0,05.9,0000.0,0006.15,0003.13,0001.75
2024-03-01 04:37:00,SystemResetWarning,0823.1,5.00,000.00,024.2,023.2,000.0,032.6,026.0,06.0,0000.0,0007.11,0003.14,0001.74
2024-03-01 04:38:00,SystemResetWarning,0823.1,5.00,000.00,024.2,023.2,000.0,032.6,026.0,05.9,0000.0,0007.68,0003.14,0001.76
2024-03-01 04:39:00,SystemResetWarning,0823.1,5.00,000.00,024.1,023.2,000.0,032.6,026.0,06.0,0000.0,0007.77,0003.16,0001.77
2024-03-01 04:40:00,SystemResetWarning,0823.1,5.00,000.00,024.1,023.2,000.0,032.6,025.9,06.2,0000.0,0008.12,0003.14,0001.77
2024-03-01 04:41:00,SystemResetWarning,0823.1,5.00,000.00,024.1,023.2,000.0,032.6,025.9,06.2,0000.0,0008.21,0003.15,0001.76
2024-03-01 04:42:00,SystemResetWarning,0823.1,5.00,000.00,024.1,023.2,000.0,032.6,025.9,06.1,0000.0,0008.27,0003.16,0001.77
2024-03-01 04:43:00,SystemResetWarning,0823.1,5.00,000.00,024.1,023.2,000.0,032.6,025.9,06.3,0000.0,0008.21,0003.13,0001.78
2024-03-01 04:44:00,SystemResetWarning,0823.2,4.99,000.00,024.1,023.2,000.0,032.6,025.9,06.1,0000.0,0008.21,0003.01,0001.77
2024-03-01 04:45:00,SystemResetWarning,0823.1,5.00,000.00,024.1,023.2,000.0,032.6,025.9,06.0,0000.0,0008.11,0002.92,0001.75
2024-03-01 04:46:00,SystemResetWarning,0823.0,5.00,000.00,024.1,023.2,000.0,032.6,025.9,06.0,0000.0,0008.17,0002.89,0001.73
2024-03-01 04:47:00,SystemResetWarning,0823.1,5.00,000.00,024.1,023.2,000.0,032.6,025.9,06.0,0000.0,0008.50,0002.92,0001.73
2024-03-01 04:48:00,SystemResetWarning,0823.0,5.00,000.00,024.1,023.2,000.0,032.5,025.9,06.1,0000.0,0008.36,0002.94,0001.74
2024-03-01 04:49:00,SystemResetWarning,0822.9,5.00,000.00,024.1,023.2,000.0,032.5,025.9,06.2,0000.0,0007.72,0002.93,0001.74
2024-03-01 04:50:00,SystemResetWarning,0822.9,5.00,000.00,024.1,023.2,000.0,032.5,025.9,06.3,0000.0,0007.68,0002.94,0001.74
2024-03-01 04:51:00,SystemResetWarning,0823.0,5.00,000.00,024.1,023.2,000.0,032.5,025.9,06.3,0000.0,0006.94,0002.92,0001.74
2024-03-01 04:52:00,SystemResetWarning,0823.0,5.00,000.00,024.1,023.2,000.0,032.5,025.9,06.3,0000.0,0006.71,0002.92,0001.74
2024-03-01 04:53:00,SystemResetWarning,0823.0,5.00,000.00,024.1,023.2,000.0,032.5,025.9,06.4,0000.0,0006.61,0002.92,0001.73
2024-03-01 04:54:00,SystemResetWarning,0822.9,5.00,000.00,024.1,023.2,000.0,032.5,025.9,06.5,0000.0,0006.62,0002.94,0001.73
2024-03-01 04:55:00,SystemResetWarning,0823.1,5.00,000.00,024.1,023.2,000.0,032.5,025.9,06.6,0000.0,0006.65,0003.06,0001.75
2024-03-01 04:56:00,SystemResetWarning,0823.0,5.00,000.00,024.1,023.2,000.0,032.5,025.9,06.6,0000.0,0007.00,0003.12,0001.75
2024-03-01 04:57:00,SystemResetWarning,0823.0,4.99,000.00,024.1,023.2,000.0,032.5,025.9,06.7,0000.0,0007.53,0003.13,0001.75
2024-03-01 04:58:00,SystemResetWarning,0823.0,5.01,000.00,024.1,023.2,000.0,032.5,025.8,06.8,0000.0,0007.71,0003.07,0001.74
2024-03-01 04:59:00,SystemResetWarning,0823.0,5.01,000.00,024.0,023.2,000.0,032.4,025.9,06.8,0000.0,0007.42,0003.01,0001.75
